GLOBALSTAR M041 [-]

Last updated on Fri Dec 29 2023 00:02:56 GMT+0000 (Coordinated Universal Time)

1 25650U 99012B 23361.79966382 -.00000072 00000+0 17516-3 0 9996 2 25650 51.9988 176.8008 0001872 11.9593 348.1288 11.96651726113942
UTC large
Height (km)
Speed (km/s)
/
Latitude / Longitude
Inclination (degrees)
Orbital Period (minutes)
Azimuth
Elevation
Range (km)
Doppler Factor

Next 0 passes for location: London (51.5072 / 0.1276)

Sorry there are no passes over London.